[[{"header":{"parameterUnit":"m.s-1","parameterCategory":2,"la1":30.2991,"la2":30.254,"lo1":-89.0895,"lo2":-89.0444,"dy":0.0017,"dx":0.0017,"nx":28,"ny":28,"refTime":"2023-08-31T03:00:00:Z","depth":"0","parameterNumber":2,"parameterNumberName":"U-component_of_CURRENTS"},"data":[0,0,0,0,0,0,0,0,0,0,0,0,0,0,0,0,0,0,0,0,0,0,0,0,0,0,0,0,0,0,0,0,0,0,0,0,0,0,0,0,0,0,0,0,0,0,0,0,0,0,0,0,0,0,0,0,0,0,-0.0071,-0.0071,0,-0.0065,-0.0065,-0.0065,-0.005,-0.005,-0.0049,-0.0049,-0.0032,-0.0032,-0.0032,0,0,0,0,0,0,0,0,0,0,0,0,0,-0.0071,-0.0071,-0.0071,-0.0071,-0.007,-0.0065,-0.0065,-0.0065,-0.005,-0.005,-0.0049,-0.0049,-0.0032,-0.0032,-0.0032,0,0,0,0,0,0,0,0,0,0,0,0,0,-0.0069,-0.0071,-0.0071,-0.0062,-0.0061,-0.0065,-0.0065,-0.0065,-0.005,-0.005,-0.0049,-0.0049,-0.0032,-0.0032,-0.0032,-0.0041,0,0,-0.0031,-0.0031,0,0,0,0,0,0,0,0,-0.0069,-0.0069,-0.0063,-0.0063,-0.0062,-0.0058,-0.0059,-0.0056,-0.005,-0.0055,-0.0049,-0.0048,-0.004,-0.0039,-0.004,-0.004,-0.0039,-0.0031,-0.0031,-0.0031,-0.0031,0,0,0,0,0,0,0,-0.0069,-0.0069,-0.0069,-0.0063,-0.0062,-0.006,-0.0059,-0.0059,-0.005,-0.0054,-0.0053,-0.0052,-0.0039,-0.004,-0.0039,-0.0039,-0.0031,-0.0031,-0.0031,-0.0031,-0.0032,-0.0032,0,0,0,0,0,0,-0.007,-0.0069,-0.0069,-0.0068,-0.0064,-0.006,-0.0059,-0.006,-0.005,-0.0048,-0.0053,-0.0052,-0.004,-0.0039,-0.0038,-0.0037,-0.0031,-0.0031,-0.0031,-0.0032,-0.0032,-0.0032,0,0,0,0,0,0,-0.007,-0.007,-0.0069,-0.0068,-0.0068,-0.0061,-0.0061,-0.006,-0.0056,-0.0049,-0.0047,-0.005,-0.004,-0.0039,-0.0034,-0.0037,-0.0031,-0.0031,-0.0032,-0.0032,-0.0032,-0.0042,0,0,0,0,0,0,-0.007,-0.007,-0.007,-0.0069,-0.0068,-0.007,-0.0062,-0.006,-0.0056,-0.0055,-0.0046,-0.0044,-0.0039,-0.0035,-0.0034,-0.0036,-0.003,-0.0032,-0.0032,-0.0032,-0.0041,-0.0042,-0.0043,0,0,0,0,0,-0.007,-0.0073,-0.007,-0.007,-0.0068,-0.007,-0.0069,-0.0062,-0.0057,-0.0057,-0.005,-0.0044,-0.0036,-0.0035,-0.0034,-0.0036,-0.0032,-0.0032,-0.0032,-0.0041,-0.0042,-0.0043,0,0,0,0,0,0,-0.0074,-0.0072,-0.0068,-0.007,-0.0069,-0.0067,-0.0066,-0.0062,-0.0058,-0.0054,-0.0047,-0.0045,-0.0042,-0.0039,-0.0037,-0.0038,-0.0033,-0.0033,-0.004,-0.0041,-0.0042,-0.0031,-0.003,0,0,0,0,0,-0.0075,-0.0074,-0.0073,-0.0074,-0.0073,-0.0069,-0.0068,-0.0064,-0.0061,-0.0058,-0.0052,-0.0047,-0.0045,-0.0042,-0.004,-0.004,-0.0021,-0.0041,-0.0042,-0.0043,-0.0034,-0.0015,-0.0013,-0.0034,-0.0034,-0.0034,0,0,-0.0076,-0.0075,-0.0075,-0.0074,-0.0072,-0.0073,-0.0067,-0.0066,-0.0065,-0.0057,-0.0053,-0.005,-0.0046,-0.0046,-0.0044,-0.0042,-0.0026,-0.0043,-0.0044,-0.0034,-0.0015,-0.0013,-0.0011,-0.0034,-0.0034,-0.0034,0,0,-0.0079,-0.0078,-0.0078,-0.0078,-0.0075,-0.0073,-0.0073,-0.007,-0.0067,-0.0066,-0.006,-0.0054,-0.0054,-0.0049,-0.0047,-0.0052,-0.0033,-0.0055,-0.005,-0.0032,-0.003,-0.0028,0.0005,0.0011,-0.0055,-0.0055,-0.0055,0,-0.008,-0.008,-0.0078,-0.008,-0.0078,-0.0074,-0.0074,-0.0074,-0.007,-0.0066,-0.0065,-0.0057,-0.0054,-0.0049,-0.005,-0.0053,-0.0034,-0.0047,-0.0033,-0.003,-0.0028,0.0006,0.0012,-0.0055,-0.0055,-0.0055,-0.0055,0,-0.0084,-0.0082,-0.0083,-0.0081,-0.0082,-0.0081,-0.0081,-0.008,-0.0075,-0.0071,-0.0065,-0.0061,-0.0052,-0.0056,-0.0054,-0.004,-0.0028,-0.0037,-0.0028,-0.0026,0.0009,0.0015,-0.0056,-0.0056,-0.0056,-0.0056,0,0,-0.0085,-0.0085,-0.0083,-0.0081,-0.0081,-0.0082,-0.0083,-0.0079,-0.0073,-0.0071,-0.0061,-0.006,-0.0051,-0.0048,-0.0046,-0.0032,0.0,-0.0026,-0.0025,0.0011,0.0055,0.0132,0.0147,-0.0007,-0.0006,-0.0005,0.0076,0,-0.0084,-0.0084,-0.0085,-0.0084,-0.0083,-0.0082,-0.0083,-0.008,-0.0074,-0.0064,-0.0058,-0.0048,-0.0051,-0.0043,-0.0031,-0.0007,0.0015,-0.002,0.0046,0.0048,0.0119,0.0156,0.0248,0.0334,0.0082,0.0083,0.0084,0,-0.0084,-0.0084,-0.0082,-0.008,-0.008,-0.008,-0.0073,-0.0074,-0.0064,-0.0057,-0.0045,-0.0036,-0.0012,-0.0019,0.0032,0.001,0.0037,0.0054,0.0057,0.0139,0.0137,0.029,0.0356,0.0377,0.0094,0.0093,0.0093,0,-0.0079,-0.008,-0.0076,-0.0076,-0.0077,-0.0076,-0.0075,-0.0069,-0.0062,-0.0046,-0.003,-0.0011,0.0016,0.0038,0.0086,0.0059,0.0152,0.0115,0.0211,0.0217,0.0316,0.033,0.0416,0.0157,0.0157,0.0157,0.0156,0,-0.0075,-0.0073,-0.0073,-0.0072,-0.0066,-0.0072,-0.0062,-0.0058,-0.0048,-0.0023,-0.0021,0.0019,0.0034,0.0088,0.0107,0.0203,0.0174,0.0235,0.025,0.0317,0.0329,0.0368,0.0343,0.016,0.0159,0.0158,0.0158,0,-0.0067,-0.0069,-0.0064,-0.0064,-0.0062,-0.0057,-0.005,-0.0043,-0.0034,0.0002,0.0012,0.0058,0.0146,0.0176,0.0238,0.0257,0.0332,0.0354,0.0444,0.0469,0.0567,0.0539,0.0556,0.052,0.0469,0.0471,0.0473,0,-0.0062,-0.0058,-0.0052,-0.0046,-0.0044,-0.0039,-0.0034,-0.0033,-0.0022,0.0042,0.0064,0.0159,0.0261,0.0388,0.0446,0.0523,0.0456,0.0626,0.0587,0.0615,0.0592,0.048,0.0437,0.0714,0.0718,0.0721,0.0723,0,-0.0048,-0.0044,-0.004,-0.0025,-0.0018,-0.0011,-0.0003,0.001,0.0029,0.0083,0.0189,0.0285,0.0441,0.0606,0.0704,0.073,0.0625,0.0695,0.0699,0.0787,0.0694,0.0654,0.0616,0.0752,0.0749,0.0747,0.0745,0.0744,-0.0033,-0.0024,-0.0013,0.0004,0.0012,0.003,0.0053,0.0076,0.0132,0.0245,0.0304,0.0499,0.0728,0.0905,0.0895,0.0981,0.0838,0.0999,0.0962,0.0844,0.0814,0.0852,0.1014,0.1012,0.1011,0.101,0.1009,0,-0.0008,0.0004,0.0017,0.0038,0.006,0.0059,0.0085,0.0126,0.0223,0.0378,0.0512,0.0839,0.1045,0.1154,0.1314,0.1287,0.1122,0.1239,0.1108,0.1047,0.1101,0.1121,0.1343,0.1343,0.1343,0.1343,0.1343,0.1343,0.0006,0.0031,0.0041,0.0087,0.0105,0.015,0.0179,0.0254,0.0368,0.063,0.0854,0.1009,0.1272,0.1506,0.1567,0.1498,0.1312,0.1292,0.1159,0.1241,0.1214,0.1189,0.1203,0.1439,0.1439,0.1095,0.1093,0.1091]},{"header":{"parameterUnit":"m.s-1","parameterCategory":2,"la1":30.2991,"la2":30.254,"lo1":-89.0895,"lo2":-89.0444,"dy":0.0017,"dx":0.0017,"nx":28,"ny":28,"refTime":"2023-08-31T03:00:00:Z","depth":"0","parameterNumber":3,"parameterNumberName":"V-component_of_CURRENTS"},"data":[0,0,0,0,0,0,0,0,0,0,0,0,0,0,0,0,0,0,0,0,0,0,0,0,0,0,0,0,0,0,0,0,0,0,0,0,0,0,0,0,0,0,0,0,0,0,0,0,0,0,0,0,0,0,0,0,0,0,-0.0061,-0.0061,0,-0.0068,-0.0068,-0.0068,-0.0073,-0.0073,-0.0073,-0.0073,-0.0072,-0.0071,-0.0071,0,0,0,0,0,0,0,0,0,0,0,0,0,-0.0052,-0.0053,-0.0061,-0.0061,-0.0061,-0.0068,-0.0068,-0.0068,-0.0073,-0.0073,-0.0073,-0.0073,-0.0072,-0.0071,-0.0071,0,0,0,0,0,0,0,0,0,0,0,0,0,-0.0058,-0.0053,-0.0061,-0.0064,-0.0064,-0.0068,-0.0068,-0.0068,-0.0073,-0.0073,-0.0073,-0.0073,-0.0072,-0.0072,-0.0071,-0.0071,0,0,-0.0071,-0.0071,0,0,0,0,0,0,0,0,-0.0057,-0.0058,-0.0063,-0.0064,-0.0064,-0.0069,-0.0065,-0.0068,-0.0073,-0.007,-0.0073,-0.0073,-0.007,-0.007,-0.0072,-0.0071,-0.0071,-0.0071,-0.0071,-0.0071,-0.0071,0,0,0,0,0,0,0,-0.0057,-0.0058,-0.0064,-0.0063,-0.0064,-0.0065,-0.0066,-0.0065,-0.007,-0.007,-0.007,-0.0071,-0.007,-0.0072,-0.0072,-0.0071,-0.0071,-0.0071,-0.0071,-0.0071,-0.0071,-0.0071,0,0,0,0,0,0,-0.0056,-0.0057,-0.0064,-0.0064,-0.006,-0.0065,-0.0066,-0.0068,-0.007,-0.007,-0.0071,-0.0071,-0.0072,-0.0072,-0.0072,-0.0071,-0.0071,-0.0071,-0.0071,-0.0071,-0.0071,-0.0071,0,0,0,0,0,0,-0.0055,-0.0056,-0.0063,-0.0061,-0.0062,-0.0065,-0.0067,-0.0068,-0.0071,-0.007,-0.0071,-0.0073,-0.0072,-0.0072,-0.0071,-0.0071,-0.0071,-0.0071,-0.0071,-0.0071,-0.0071,-0.0069,0,0,0,0,0,0,-0.0055,-0.0056,-0.0058,-0.0061,-0.0062,-0.0066,-0.0067,-0.0068,-0.0071,-0.0071,-0.0072,-0.0072,-0.0072,-0.0071,-0.0071,-0.0071,-0.0071,-0.0071,-0.0071,-0.0071,-0.0069,-0.0069,-0.0069,0,0,0,0,0,-0.0055,-0.0056,-0.0058,-0.0059,-0.0063,-0.0066,-0.0067,-0.007,-0.0071,-0.0073,-0.0072,-0.0072,-0.0071,-0.0071,-0.0071,-0.007,-0.0071,-0.0071,-0.0071,-0.0069,-0.0069,-0.0069,0,0,0,0,0,0,-0.0053,-0.0057,-0.0059,-0.0061,-0.0064,-0.0067,-0.0069,-0.0071,-0.0072,-0.0073,-0.0072,-0.0072,-0.0072,-0.0072,-0.0071,-0.0071,-0.0071,-0.0071,-0.007,-0.007,-0.007,-0.0072,-0.0071,0,0,0,0,0,-0.0054,-0.0056,-0.0059,-0.0061,-0.0063,-0.0066,-0.0068,-0.007,-0.0071,-0.0072,-0.0072,-0.0072,-0.0073,-0.0071,-0.0072,-0.007,-0.0068,-0.007,-0.007,-0.007,-0.0072,-0.0067,-0.0066,-0.0071,-0.0071,-0.0071,0,0,-0.0054,-0.0056,-0.0058,-0.0061,-0.0064,-0.0067,-0.0067,-0.007,-0.0072,-0.0071,-0.0073,-0.0073,-0.0073,-0.0072,-0.0072,-0.0071,-0.0067,-0.007,-0.007,-0.0072,-0.0067,-0.0066,-0.0066,-0.0071,-0.0071,-0.0071,0,0,-0.0056,-0.0057,-0.0061,-0.0063,-0.0067,-0.0068,-0.0069,-0.0072,-0.0073,-0.0074,-0.0074,-0.0073,-0.0074,-0.0072,-0.0072,-0.0072,-0.0069,-0.0072,-0.0071,-0.0066,-0.0066,-0.0065,-0.0059,-0.0058,-0.007,-0.007,-0.007,0,-0.0055,-0.0062,-0.0062,-0.0066,-0.0068,-0.0069,-0.0072,-0.0073,-0.0075,-0.0074,-0.0075,-0.0074,-0.0074,-0.0072,-0.0072,-0.0072,-0.0068,-0.007,-0.0066,-0.0065,-0.0065,-0.0058,-0.0057,-0.007,-0.007,-0.007,-0.007,0,-0.0062,-0.0066,-0.0068,-0.0073,-0.0074,-0.0077,-0.0077,-0.0077,-0.0078,-0.0077,-0.0075,-0.0075,-0.0073,-0.0073,-0.0073,-0.007,-0.0067,-0.0068,-0.0065,-0.0064,-0.0057,-0.0056,-0.007,-0.007,-0.007,-0.007,0,0,-0.0062,-0.0071,-0.0072,-0.0075,-0.0078,-0.0079,-0.008,-0.0079,-0.0076,-0.0077,-0.0072,-0.0076,-0.0073,-0.0072,-0.0071,-0.0067,-0.006,-0.0066,-0.0066,-0.0058,-0.0048,-0.0044,-0.0043,-0.0059,-0.0059,-0.0059,-0.0043,0,-0.0068,-0.0077,-0.0079,-0.0085,-0.0089,-0.0086,-0.0087,-0.0084,-0.0079,-0.0072,-0.0071,-0.0066,-0.0073,-0.0069,-0.0068,-0.0059,-0.0058,-0.0064,-0.0051,-0.005,-0.0047,-0.0042,-0.0023,-0.0007,-0.0042,-0.0041,-0.0041,0,-0.0075,-0.008,-0.0089,-0.0091,-0.0092,-0.0094,-0.0089,-0.0088,-0.0077,-0.0072,-0.0066,-0.0061,-0.0055,-0.0061,-0.0052,-0.0055,-0.0054,-0.0051,-0.005,-0.0048,-0.0045,-0.0014,-0.0004,-0.0099,-0.004,-0.004,-0.004,0,-0.0079,-0.0086,-0.0093,-0.0095,-0.0099,-0.0099,-0.0098,-0.0089,-0.008,-0.0068,-0.0052,-0.0052,-0.0037,-0.0043,-0.0036,-0.0043,-0.0023,-0.0031,-0.0029,-0.0029,-0.0011,-0.0009,-0.009,-0.0031,-0.0031,-0.0031,-0.0031,0,-0.0085,-0.0089,-0.0097,-0.0102,-0.0105,-0.0104,-0.0101,-0.0094,-0.0078,-0.0047,-0.0051,-0.0014,-0.003,-0.0016,-0.0028,-0.002,-0.0016,-0.0028,-0.0025,-0.001,-0.0008,-0.0089,-0.0154,-0.003,-0.003,-0.003,-0.0031,0,-0.0089,-0.0095,-0.0103,-0.0109,-0.0109,-0.0111,-0.01,-0.0092,-0.0073,-0.003,-0.0022,0.0015,0.0043,0.0023,0.0028,0.0004,-0.0045,0.0,0.0019,0.0024,-0.0073,-0.0138,-0.0217,-0.0241,0.0001,0.0001,0.0001,0,-0.0092,-0.0099,-0.0108,-0.0108,-0.0111,-0.0112,-0.0108,-0.0095,-0.007,0.0007,0.0039,0.0077,0.0148,0.0141,0.0084,0.0054,-0.0027,0.0037,0.002,-0.0079,-0.0148,-0.0202,-0.022,0.0048,0.0049,0.0049,0.0049,0,-0.0095,-0.0101,-0.0106,-0.0107,-0.0107,-0.0102,-0.0084,-0.0059,-0.0014,0.0057,0.0181,0.0252,0.0247,0.0245,0.0163,0.0132,-0.004,0.0045,-0.006,-0.0124,-0.0185,-0.0204,0.0033,0.0053,0.0053,0.0053,0.0052,0.0052,-0.0093,-0.0097,-0.0102,-0.01,-0.0096,-0.0072,-0.0037,0.0023,0.0106,0.0269,0.031,0.0477,0.0395,0.0303,0.0205,0.0002,-0.0017,-0.0043,-0.0113,-0.0158,-0.0192,0.005,0.0072,0.0072,0.0072,0.0072,0.0071,0,-0.0086,-0.0088,-0.0088,-0.008,-0.0063,-0.0065,-0.0001,0.0082,0.0236,0.0401,0.0561,0.0657,0.0513,0.034,0.0049,-0.0118,-0.0182,-0.0219,-0.0299,-0.0307,-0.0085,-0.0095,-0.0105,-0.0105,-0.0105,-0.0104,-0.0104,-0.0104,-0.008,-0.0078,-0.0077,-0.0046,-0.0032,0.0029,0.0084,0.0247,0.0398,0.0675,0.0838,0.0951,0.0838,0.0176,-0.0239,-0.0329,-0.0465,-0.05,-0.0571,-0.0441,-0.043,-0.042,-0.0444,-0.0527,-0.0528,-0.0747,-0.075,-0.0752]}],[{"header":{"parameterUnit":"m.s-1","parameterCategory":2,"la1":30.2991,"la2":30.254,"lo1":-89.0895,"lo2":-89.0444,"dy":0.0017,"dx":0.0017,"nx":28,"ny":28,"refTime":"2023-08-31T03:00:00:Z","depth":"2","parameterNumber":2,"parameterNumberName":"U-component_of_CURRENTS"},"data":[0,0,0,0,0,0,0,0,0,0,0,0,0,0,0,0,0,0,0,0,0,0,0,0,0,0,0,0,0,0,0,0,0,0,0,0,0,0,0,0,0,0,0,0,0,0,0,0,0,0,0,0,0,0,0,0,0,0,0.0027,0.0027,0,0.0035,0.0035,0.0035,0.005,0.005,0.005,0.0051,0.0067,0.0067,0.0068,0,0,0,0,0,0,0,0,0,0,0,0,0,0.002,0.002,0.0027,0.0027,0.0027,0.0035,0.0035,0.0035,0.005,0.005,0.005,0.0051,0.0067,0.0067,0.0068,0,0,0,0,0,0,0,0,0,0,0,0,0,0.0025,0.002,0.0027,0.0035,0.0036,0.0035,0.0035,0.0035,0.005,0.005,0.0051,0.0051,0.0067,0.0067,0.0068,0.0061,0,0,0.0068,0.0069,0,0,0,0,0,0,0,0,0.0025,0.0025,0.0034,0.0035,0.0036,0.0042,0.0039,0.0044,0.005,0.0044,0.0051,0.0051,0.0059,0.006,0.0061,0.0061,0.0062,0.0068,0.0069,0.0069,0.0069,0,0,0,0,0,0,0,0.0024,0.0025,0.003,0.0034,0.0035,0.0038,0.0039,0.004,0.0049,0.0045,0.0046,0.0047,0.006,0.006,0.0061,0.0062,0.0068,0.0069,0.0069,0.0069,0.007,0.007,0,0,0,0,0,0,0.0023,0.0025,0.003,0.003,0.0031,0.0037,0.0039,0.0039,0.0049,0.0051,0.0047,0.0048,0.006,0.0061,0.0062,0.0063,0.0069,0.0069,0.0069,0.007,0.007,0.0069,0,0,0,0,0,0,0.0023,0.0024,0.0029,0.0028,0.0029,0.0037,0.0038,0.0039,0.0043,0.0051,0.0053,0.0049,0.006,0.0061,0.0066,0.0064,0.0069,0.0069,0.007,0.007,0.007,0.006,0,0,0,0,0,0,0.0023,0.0024,0.0025,0.0028,0.0029,0.003,0.0037,0.0039,0.0043,0.0045,0.0053,0.0055,0.006,0.0065,0.0066,0.0064,0.007,0.007,0.007,0.007,0.006,0.0059,0.0059,0,0,0,0,0,0.0023,0.0021,0.0024,0.0025,0.003,0.003,0.0031,0.0038,0.0043,0.0043,0.005,0.0055,0.0064,0.0065,0.0066,0.0064,0.007,0.007,0.007,0.0061,0.006,0.0059,0,0,0,0,0,0,0.0018,0.0022,0.0026,0.0026,0.0029,0.0032,0.0034,0.0038,0.0043,0.0046,0.0053,0.0055,0.0058,0.0062,0.0063,0.0064,0.0068,0.0068,0.0061,0.006,0.0059,0.0068,0.007,0,0,0,0,0,0.0017,0.0018,0.0022,0.0022,0.0024,0.0029,0.003,0.0035,0.0039,0.0042,0.0048,0.0053,0.0056,0.0059,0.0062,0.0062,0.0081,0.0061,0.006,0.0059,0.0067,0.0087,0.0089,0.0068,0.0068,0.0068,0,0,0.0015,0.0018,0.0019,0.0022,0.0025,0.0025,0.0031,0.0033,0.0034,0.0042,0.0046,0.005,0.0055,0.0056,0.0057,0.006,0.0076,0.0059,0.0058,0.0067,0.0087,0.0089,0.0091,0.0068,0.0068,0.0068,0,0,0.0012,0.0015,0.0016,0.0017,0.0021,0.0024,0.0024,0.0028,0.0032,0.0033,0.004,0.0045,0.0046,0.0052,0.0055,0.005,0.007,0.0048,0.0052,0.0071,0.0073,0.0075,0.0108,0.0113,0.0048,0.0048,0.0048,0,0.0011,0.0012,0.0016,0.0015,0.0017,0.0023,0.0023,0.0024,0.0029,0.0033,0.0034,0.0043,0.0046,0.0052,0.0052,0.0049,0.0068,0.0055,0.007,0.0073,0.0075,0.0108,0.0114,0.0048,0.0048,0.0048,0.0048,0,0.0007,0.0009,0.0009,0.0012,0.0012,0.0014,0.0016,0.0018,0.0022,0.0027,0.0033,0.0038,0.0048,0.0044,0.0047,0.0061,0.0074,0.0066,0.0074,0.0077,0.0112,0.0118,0.0047,0.0047,0.0047,0.0047,0,0,0.0005,0.0007,0.0008,0.001,0.0012,0.0013,0.0013,0.0018,0.0024,0.0026,0.0036,0.0038,0.0048,0.0051,0.0055,0.0069,0.0102,0.0076,0.0077,0.0112,0.0158,0.0229,0.0243,0.0096,0.0097,0.0098,0.0178,0,0.0005,0.0005,0.0006,0.0007,0.0008,0.0011,0.0011,0.0015,0.0022,0.0032,0.004,0.005,0.0048,0.0056,0.0069,0.0094,0.0117,0.0082,0.0148,0.0151,0.0216,0.0252,0.0247,0.0324,0.0185,0.0186,0.0186,0,0.0004,0.0005,0.0006,0.0008,0.0009,0.0009,0.0016,0.0017,0.0029,0.0036,0.0049,0.006,0.0085,0.0079,0.0131,0.011,0.0138,0.0156,0.0159,0.0235,0.0234,0.0298,0.0341,0.0197,0.0196,0.0195,0.0195,0,0.0005,0.0006,0.0009,0.0008,0.0009,0.0011,0.0012,0.002,0.0029,0.0045,0.0063,0.0083,0.0111,0.0135,0.0184,0.0158,0.0251,0.0216,0.0308,0.0314,0.033,0.0336,0.0259,0.0259,0.0259,0.0258,0.0258,0,0.0007,0.0009,0.0009,0.001,0.0015,0.0011,0.0021,0.0025,0.0039,0.0066,0.007,0.0111,0.0128,0.0183,0.0204,0.0299,0.0272,0.0331,0.0346,0.0328,0.0333,0.0232,0.0228,0.0262,0.0261,0.026,0.026,0,0.0011,0.001,0.0014,0.0015,0.0017,0.002,0.003,0.0038,0.005,0.0088,0.0099,0.0148,0.0236,0.0267,0.0331,0.035,0.0409,0.0446,0.0439,0.0453,0.045,0.0444,0.0549,0.0553,0.0555,0.0558,0.056,0,0.0014,0.0016,0.0022,0.0028,0.003,0.0034,0.0041,0.0045,0.006,0.0128,0.0153,0.0247,0.0349,0.0474,0.0524,0.0599,0.0528,0.0609,0.0558,0.0479,0.0482,0.0472,0.0463,0.0571,0.0573,0.0575,0.0576,0,0.0023,0.0026,0.003,0.0045,0.0052,0.0062,0.0073,0.009,0.0115,0.0172,0.0282,0.0377,0.052,0.0629,0.0717,0.0731,0.0593,0.0647,0.0572,0.0506,0.0509,0.0509,0.0497,0.059,0.0588,0.0587,0.0587,0.0586,0.0034,0.0043,0.0053,0.0069,0.0079,0.0103,0.013,0.0161,0.0223,0.0341,0.04,0.0569,0.062,0.0808,0.0798,0.0766,0.0786,0.0723,0.0714,0.0704,0.07,0.0708,0.0826,0.0826,0.0826,0.0826,0.0826,0,0.0055,0.0067,0.0079,0.0103,0.0127,0.0127,0.0166,0.0217,0.0323,0.0458,0.0593,0.0682,0.0804,0.0821,0.0836,0.0838,0.0764,0.0766,0.0666,0.0657,0.0647,0.0634,0.0746,0.0745,0.0744,0.0743,0,0,0.0067,0.009,0.0101,0.0152,0.0171,0.0226,0.0264,0.0354,0.0458,0.0613,0.0735,0.0885,0.091,0.0867,0.0834,0.0805,0.0713,0.0768,0.0848,0.0729,0.0718,0.0656,0.0632,0,0,0,0,0]},{"header":{"parameterUnit":"m.s-1","parameterCategory":2,"la1":30.2991,"la2":30.254,"lo1":-89.0895,"lo2":-89.0444,"dy":0.0017,"dx":0.0017,"nx":28,"ny":28,"refTime":"2023-08-31T03:00:00:Z","depth":"2","parameterNumber":3,"parameterNumberName":"V-component_of_CURRENTS"},"data":[0,0,0,0,0,0,0,0,0,0,0,0,0,0,0,0,0,0,0,0,0,0,0,0,0,0,0,0,0,0,0,0,0,0,0,0,0,0,0,0,0,0,0,0,0,0,0,0,0,0,0,0,0,0,0,0,0,0,-0.0177,-0.0177,0,-0.0186,-0.0186,-0.0186,-0.019,-0.019,-0.019,-0.019,-0.0191,-0.0191,-0.0191,0,0,0,0,0,0,0,0,0,0,0,0,0,-0.0165,-0.0165,-0.0177,-0.0177,-0.0177,-0.0186,-0.0186,-0.0186,-0.019,-0.019,-0.019,-0.019,-0.0191,-0.0191,-0.0191,0,0,0,0,0,0,0,0,0,0,0,0,0,-0.0172,-0.0165,-0.0177,-0.018,-0.0181,-0.0186,-0.0186,-0.0186,-0.019,-0.019,-0.019,-0.019,-0.0191,-0.0191,-0.0191,-0.0192,0,0,-0.0191,-0.0191,0,0,0,0,0,0,0,0,-0.0172,-0.0172,-0.018,-0.018,-0.018,-0.0186,-0.0182,-0.0187,-0.019,-0.0187,-0.019,-0.019,-0.0188,-0.0189,-0.0191,-0.0192,-0.0192,-0.0191,-0.0191,-0.0191,-0.0191,0,0,0,0,0,0,0,-0.0171,-0.0172,-0.0181,-0.018,-0.018,-0.0181,-0.0182,-0.0183,-0.0188,-0.0187,-0.0187,-0.0188,-0.0188,-0.0191,-0.0191,-0.0192,-0.0191,-0.0191,-0.0191,-0.0191,-0.0193,-0.0193,0,0,0,0,0,0,-0.0169,-0.0172,-0.0181,-0.0181,-0.0175,-0.0181,-0.0182,-0.0185,-0.0188,-0.0188,-0.0188,-0.0188,-0.0191,-0.0191,-0.0191,-0.0189,-0.0191,-0.0191,-0.0191,-0.0193,-0.0193,-0.0193,0,0,0,0,0,0,-0.0169,-0.017,-0.018,-0.0176,-0.0177,-0.0182,-0.0184,-0.0185,-0.0188,-0.0189,-0.0189,-0.019,-0.0191,-0.0191,-0.0191,-0.0189,-0.0191,-0.0191,-0.0193,-0.0193,-0.0193,-0.0187,0,0,0,0,0,0,-0.0169,-0.017,-0.0173,-0.0176,-0.0178,-0.0184,-0.0184,-0.0185,-0.0188,-0.0188,-0.019,-0.019,-0.0191,-0.0191,-0.0191,-0.0189,-0.0191,-0.0193,-0.0193,-0.0193,-0.0187,-0.0187,-0.0187,0,0,0,0,0,-0.0168,-0.0171,-0.0173,-0.0174,-0.018,-0.0184,-0.0185,-0.0187,-0.0188,-0.019,-0.019,-0.019,-0.0191,-0.0191,-0.0191,-0.0189,-0.0193,-0.0193,-0.0193,-0.0188,-0.0187,-0.0187,0,0,0,0,0,0,-0.0168,-0.0172,-0.0174,-0.0178,-0.0181,-0.0184,-0.0187,-0.0188,-0.019,-0.019,-0.0191,-0.0191,-0.0191,-0.0191,-0.0191,-0.019,-0.0192,-0.0192,-0.0188,-0.0188,-0.0187,-0.0187,-0.0191,0,0,0,0,0,-0.0169,-0.0172,-0.0175,-0.0179,-0.018,-0.0184,-0.0186,-0.0187,-0.0189,-0.019,-0.019,-0.0191,-0.0191,-0.019,-0.0192,-0.019,-0.0189,-0.019,-0.0189,-0.0189,-0.019,-0.0185,-0.0184,-0.0193,-0.0193,-0.0193,0,0,-0.017,-0.0172,-0.0174,-0.0179,-0.0182,-0.0184,-0.0185,-0.0188,-0.0189,-0.019,-0.019,-0.0191,-0.0192,-0.0191,-0.019,-0.019,-0.0186,-0.0189,-0.0189,-0.0189,-0.0185,-0.0184,-0.0183,-0.0193,-0.0193,-0.0193,0,0,-0.0173,-0.0176,-0.0179,-0.0181,-0.0184,-0.0185,-0.0186,-0.0189,-0.0189,-0.019,-0.019,-0.0189,-0.0191,-0.0188,-0.0188,-0.0187,-0.0186,-0.0188,-0.0184,-0.0179,-0.0179,-0.0178,-0.0174,-0.0172,-0.0186,-0.0186,-0.0186,0,-0.0173,-0.0179,-0.0181,-0.0184,-0.0184,-0.0185,-0.0187,-0.0188,-0.019,-0.0188,-0.019,-0.0189,-0.0189,-0.0185,-0.0185,-0.0186,-0.0184,-0.0185,-0.0179,-0.0178,-0.0177,-0.0173,-0.0172,-0.0185,-0.0185,-0.0185,-0.0185,0,-0.018,-0.0183,-0.0185,-0.0188,-0.0188,-0.019,-0.019,-0.0189,-0.0189,-0.0187,-0.0185,-0.0185,-0.0183,-0.0183,-0.0184,-0.0179,-0.0179,-0.018,-0.0179,-0.0176,-0.0172,-0.0171,-0.0185,-0.0185,-0.0185,-0.0185,0,0,-0.0183,-0.0188,-0.0189,-0.019,-0.019,-0.0191,-0.0189,-0.0186,-0.0182,-0.0183,-0.0177,-0.0179,-0.0177,-0.0177,-0.0176,-0.0172,-0.0165,-0.0174,-0.0174,-0.0168,-0.0155,-0.0158,-0.0157,-0.0165,-0.0165,-0.0165,-0.0154,0,-0.0188,-0.0193,-0.0194,-0.0196,-0.0198,-0.0194,-0.0192,-0.0188,-0.0182,-0.0174,-0.0172,-0.0168,-0.0175,-0.0172,-0.017,-0.0165,-0.0163,-0.0168,-0.016,-0.016,-0.0161,-0.0156,-0.0176,-0.0168,-0.0153,-0.0152,-0.0152,0,-0.0194,-0.0197,-0.0202,-0.0199,-0.0199,-0.0199,-0.019,-0.0187,-0.0175,-0.017,-0.0163,-0.016,-0.0153,-0.016,-0.0153,-0.0156,-0.0158,-0.0156,-0.0156,-0.016,-0.0161,-0.0169,-0.0167,-0.0151,-0.0151,-0.0151,-0.0151,0,-0.0199,-0.0201,-0.0204,-0.0205,-0.0203,-0.0202,-0.0198,-0.0187,-0.0178,-0.0165,-0.0151,-0.0149,-0.0137,-0.0143,-0.014,-0.0146,-0.0131,-0.0138,-0.0143,-0.0143,-0.0159,-0.0161,-0.0137,-0.0137,-0.0137,-0.0137,-0.0137,0,-0.0204,-0.0206,-0.0208,-0.021,-0.021,-0.0206,-0.02,-0.0192,-0.0176,-0.0151,-0.015,-0.0122,-0.0132,-0.0122,-0.0133,-0.0131,-0.0125,-0.0141,-0.014,-0.0158,-0.016,-0.0145,-0.0147,-0.0137,-0.0137,-0.0137,-0.0137,0,-0.0209,-0.0211,-0.0215,-0.0215,-0.0214,-0.0214,-0.0202,-0.0193,-0.0175,-0.0139,-0.0132,-0.0101,-0.008,-0.0094,-0.0092,-0.0112,-0.0118,-0.0121,-0.0141,-0.0143,-0.0135,-0.0136,-0.0126,-0.0126,-0.0126,-0.0126,-0.0126,0,-0.0212,-0.0217,-0.022,-0.0219,-0.022,-0.0218,-0.0213,-0.0198,-0.0177,-0.0114,-0.0091,-0.006,-0.001,-0.0017,-0.0063,-0.0089,-0.0097,-0.0135,-0.0153,-0.0134,-0.0134,-0.0135,-0.0136,-0.0172,-0.0172,-0.0172,-0.0173,0,-0.0217,-0.0221,-0.0223,-0.0222,-0.022,-0.0214,-0.0198,-0.0179,-0.014,-0.0083,0.001,0.006,0.0052,0.0025,-0.0041,-0.0065,-0.0136,-0.0142,-0.0113,-0.0171,-0.0177,-0.0176,-0.0176,-0.0175,-0.0175,-0.0175,-0.0175,-0.0175,-0.0218,-0.0222,-0.0224,-0.022,-0.0215,-0.0196,-0.0169,-0.012,-0.0056,0.0066,0.0086,0.0196,0.008,0.0042,-0.005,-0.0133,-0.0121,-0.0166,-0.0165,-0.0164,-0.0172,-0.0176,-0.0176,-0.0176,-0.0176,-0.0176,-0.0176,0,-0.0219,-0.0219,-0.0217,-0.021,-0.0196,-0.0193,-0.0145,-0.0082,0.0036,0.0154,0.0263,0.0211,0.0148,0.0056,-0.0078,-0.0178,-0.0185,-0.0204,-0.0214,-0.0211,-0.0209,-0.0219,-0.0236,-0.0236,-0.0236,-0.0236,0,0,-0.0218,-0.0217,-0.0215,-0.0191,-0.0178,-0.0132,-0.009,0.0036,0.0146,0.0297,0.0385,0.0395,0.0234,0.0105,-0.0064,-0.0134,-0.0132,-0.0139,-0.0084,-0.0076,-0.0071,-0.0188,-0.02,0,0,0,0,0]}],[{"header":{"parameterUnit":"m.s-1","parameterCategory":2,"la1":30.2991,"la2":30.254,"lo1":-89.0895,"lo2":-89.0444,"dy":0.0017,"dx":0.0017,"nx":28,"ny":28,"refTime":"2023-08-31T03:00:00:Z","depth":"4","parameterNumber":2,"parameterNumberName":"U-component_of_CURRENTS"},"data":[0,0,0,0,0,0,0,0,0,0,0,0,0,0,0,0,0,0,0,0,0,0,0,0,0,0,0,0,0,0,0,0,0,0,0,0,0,0,0,0,0,0,0,0,0,0,0,0,0,0,0,0,0,0,0,0,0,0,0.0056,0.0056,0,0.0066,0.0066,0.0066,0.008,0.008,0.008,0.008,0.0096,0.0096,0.0097,0,0,0,0,0,0,0,0,0,0,0,0,0,0.0044,0.0044,0.0056,0.0056,0.0056,0.0066,0.0066,0.0066,0.008,0.008,0.008,0.0081,0.0096,0.0096,0.0097,0,0,0,0,0,0,0,0,0,0,0,0,0,0.0051,0.0044,0.0056,0.0064,0.0065,0.0066,0.0066,0.0066,0.008,0.008,0.008,0.0081,0.0096,0.0096,0.0097,0.0091,0,0,0.0097,0.0098,0,0,0,0,0,0,0,0,0.005,0.0051,0.0063,0.0064,0.0065,0.0072,0.0067,0.0074,0.008,0.0074,0.008,0.0081,0.0088,0.0089,0.009,0.0091,0.0092,0.0097,0.0098,0.0098,0.0098,0,0,0,0,0,0,0,0.005,0.0051,0.0059,0.0063,0.0064,0.0066,0.0067,0.0069,0.0079,0.0074,0.0075,0.0077,0.0089,0.009,0.0091,0.0092,0.0097,0.0098,0.0098,0.0098,0.01,0.0099,0,0,0,0,0,0,0.0049,0.005,0.0059,0.006,0.0058,0.0066,0.0067,0.0069,0.0079,0.0081,0.0076,0.0077,0.0089,0.009,0.0091,0.0093,0.0098,0.0098,0.0098,0.01,0.01,0.0099,0,0,0,0,0,0,0.0048,0.0049,0.0059,0.0055,0.0057,0.0066,0.0067,0.0069,0.0073,0.008,0.0082,0.0079,0.0089,0.0091,0.0095,0.0093,0.0098,0.0098,0.01,0.01,0.0099,0.0091,0,0,0,0,0,0,0.0048,0.0049,0.0051,0.0055,0.0057,0.006,0.0067,0.0069,0.0073,0.0075,0.0083,0.0085,0.009,0.0094,0.0095,0.0094,0.0099,0.01,0.01,0.01,0.0091,0.009,0.009,0,0,0,0,0,0.0048,0.0047,0.0051,0.0052,0.0058,0.006,0.0061,0.0069,0.0073,0.0074,0.008,0.0085,0.0094,0.0095,0.0095,0.0094,0.01,0.01,0.01,0.0092,0.0091,0.009,0,0,0,0,0,0,0.0042,0.0049,0.0053,0.0054,0.0058,0.0063,0.0064,0.0068,0.0073,0.0076,0.0083,0.0085,0.0087,0.0091,0.0092,0.0094,0.0098,0.0097,0.0091,0.009,0.0089,0.0097,0.0099,0,0,0,0,0,0.0041,0.0044,0.0049,0.0051,0.0052,0.0058,0.006,0.0065,0.007,0.0072,0.0078,0.0083,0.0086,0.0089,0.0092,0.0092,0.011,0.0092,0.0091,0.009,0.0097,0.0117,0.0119,0.0099,0.0099,0.0099,0,0,0.004,0.0044,0.0045,0.005,0.0054,0.0054,0.0061,0.0063,0.0065,0.0073,0.0076,0.008,0.0085,0.0086,0.0088,0.0091,0.0107,0.009,0.0089,0.0097,0.0117,0.0119,0.0121,0.0098,0.0098,0.0098,0,0,0.0036,0.0041,0.0042,0.0044,0.0049,0.0053,0.0053,0.0058,0.0062,0.0064,0.007,0.0075,0.0077,0.0083,0.0086,0.0082,0.0101,0.008,0.0084,0.0103,0.0105,0.0107,0.0139,0.0144,0.0081,0.0081,0.0081,0,0.0035,0.0037,0.0042,0.0042,0.0045,0.0051,0.0052,0.0054,0.0059,0.0063,0.0064,0.0074,0.0077,0.0083,0.0083,0.0081,0.01,0.0086,0.0102,0.0105,0.0107,0.0139,0.0145,0.008,0.008,0.008,0.008,0,0.0031,0.0034,0.0034,0.0038,0.0039,0.0041,0.0044,0.0047,0.0051,0.0056,0.0063,0.0068,0.0078,0.0075,0.0078,0.0093,0.0105,0.0098,0.0106,0.0109,0.0143,0.0149,0.008,0.008,0.008,0.008,0,0,0.0029,0.0032,0.0033,0.0035,0.0038,0.0039,0.004,0.0046,0.0051,0.0055,0.0065,0.0067,0.0077,0.0081,0.0085,0.01,0.0132,0.0107,0.0109,0.0142,0.0188,0.0221,0.0231,0.0129,0.013,0.013,0.0208,0,0.0027,0.0027,0.003,0.003,0.0031,0.0035,0.0036,0.0041,0.0049,0.0059,0.0067,0.0078,0.0076,0.0085,0.0099,0.0124,0.0147,0.0113,0.0179,0.0181,0.0212,0.0239,0.0133,0.0213,0.0214,0.0215,0.0216,0,0.0026,0.0027,0.0026,0.0029,0.003,0.003,0.0038,0.0039,0.0053,0.0061,0.0074,0.0086,0.0111,0.0106,0.0159,0.0139,0.0167,0.0185,0.0188,0.0228,0.0225,0.0208,0.0227,0.0226,0.0226,0.0225,0.0224,0,0.0024,0.0026,0.0026,0.0026,0.0028,0.003,0.0032,0.0041,0.005,0.0068,0.0086,0.0106,0.0135,0.016,0.021,0.0185,0.0277,0.0245,0.0303,0.0306,0.0255,0.0252,0.0287,0.0287,0.0287,0.0287,0.0286,0,0.0024,0.0024,0.0025,0.0025,0.0029,0.0028,0.0036,0.0042,0.0057,0.0085,0.0091,0.0131,0.0152,0.0207,0.0228,0.0303,0.0297,0.032,0.0331,0.025,0.0246,0.026,0.0256,0.0289,0.0289,0.0288,0.0288,0,0.0024,0.0023,0.0026,0.0027,0.0029,0.0032,0.0042,0.0051,0.0065,0.0105,0.0117,0.0166,0.0246,0.028,0.0343,0.0346,0.0396,0.0424,0.0362,0.0366,0.0404,0.0399,0.0483,0.0485,0.0486,0.0488,0.0489,0,0.0025,0.0025,0.003,0.0035,0.0037,0.0041,0.0049,0.0056,0.0074,0.0142,0.0169,0.0254,0.0295,0.0417,0.0435,0.0492,0.0488,0.0501,0.0424,0.0424,0.0426,0.0418,0.041,0.0491,0.0492,0.0492,0.0493,0,0.0029,0.003,0.0033,0.0047,0.0054,0.0066,0.008,0.0099,0.0129,0.0139,0.0241,0.0303,0.0402,0.0456,0.0515,0.0543,0.0477,0.0517,0.0512,0.044,0.0435,0.0434,0.0425,0.0498,0.0497,0.0497,0.0497,0,0.0034,0.004,0.0049,0.0064,0.0076,0.0103,0.0104,0.0146,0.017,0.0237,0.0282,0.0374,0.0421,0.0488,0.0541,0.0578,0.0557,0.0522,0.0516,0.0511,0.0483,0.0478,0.0581,0,0,0,0,0,0.0043,0.0056,0.0068,0.0091,0.0104,0.012,0.0135,0.0137,0.0171,0.0248,0.0265,0.0362,0.0461,0.0501,0.0546,0.0546,0.0549,0.0595,0.0502,0.0529,0.0523,0.0486,0,0,0,0,0,0,0.005,0.0061,0.0074,0.0116,0.0141,0.0163,0.0181,0.02,0.0238,0.0275,0.0332,0.0356,0.0451,0.0449,0.0548,0.0559,0.0498,0.0638,0.0638,0.0533,0.0527,0.0522,0.0482,0,0,0,0,0]},{"header":{"parameterUnit":"m.s-1","parameterCategory":2,"la1":30.2991,"la2":30.254,"lo1":-89.0895,"lo2":-89.0444,"dy":0.0017,"dx":0.0017,"nx":28,"ny":28,"refTime":"2023-08-31T03:00:00:Z","depth":"4","parameterNumber":3,"parameterNumberName":"V-component_of_CURRENTS"},"data":[0,0,0,0,0,0,0,0,0,0,0,0,0,0,0,0,0,0,0,0,0,0,0,0,0,0,0,0,0,0,0,0,0,0,0,0,0,0,0,0,0,0,0,0,0,0,0,0,0,0,0,0,0,0,0,0,0,0,-0.0186,-0.0187,0,-0.0197,-0.0197,-0.0197,-0.0203,-0.0203,-0.0203,-0.0203,-0.0208,-0.0208,-0.0208,0,0,0,0,0,0,0,0,0,0,0,0,0,-0.0171,-0.0172,-0.0186,-0.0187,-0.0187,-0.0196,-0.0197,-0.0197,-0.0203,-0.0203,-0.0203,-0.0203,-0.0208,-0.0208,-0.0208,0,0,0,0,0,0,0,0,0,0,0,0,0,-0.018,-0.0172,-0.0186,-0.0191,-0.0191,-0.0196,-0.0197,-0.0197,-0.0203,-0.0203,-0.0203,-0.0203,-0.0208,-0.0208,-0.0208,-0.0209,0,0,-0.0209,-0.0209,0,0,0,0,0,0,0,0,-0.0179,-0.018,-0.019,-0.019,-0.0191,-0.0198,-0.0193,-0.0201,-0.0203,-0.0199,-0.0203,-0.0203,-0.0204,-0.0205,-0.0207,-0.0209,-0.021,-0.0209,-0.0209,-0.0209,-0.0209,0,0,0,0,0,0,0,-0.0179,-0.018,-0.0191,-0.019,-0.0191,-0.0192,-0.0193,-0.0195,-0.0201,-0.0199,-0.02,-0.02,-0.0204,-0.0207,-0.0207,-0.021,-0.0209,-0.0209,-0.0209,-0.0209,-0.0214,-0.0214,0,0,0,0,0,0,-0.0177,-0.0179,-0.019,-0.0191,-0.0185,-0.0192,-0.0193,-0.0196,-0.0202,-0.0202,-0.02,-0.0201,-0.0206,-0.0207,-0.0207,-0.0206,-0.0209,-0.0209,-0.0209,-0.0214,-0.0214,-0.0214,0,0,0,0,0,0,-0.0176,-0.0178,-0.019,-0.0185,-0.0187,-0.0192,-0.0195,-0.0196,-0.0201,-0.0202,-0.0203,-0.0204,-0.0206,-0.0207,-0.0209,-0.0206,-0.0209,-0.0209,-0.0214,-0.0214,-0.0214,-0.0205,0,0,0,0,0,0,-0.0176,-0.0178,-0.0181,-0.0185,-0.0187,-0.0194,-0.0195,-0.0197,-0.0201,-0.0201,-0.0206,-0.0206,-0.0207,-0.0208,-0.0209,-0.0207,-0.021,-0.0214,-0.0214,-0.0214,-0.0205,-0.0205,-0.0204,0,0,0,0,0,-0.0175,-0.018,-0.0181,-0.0183,-0.0191,-0.0194,-0.0195,-0.0199,-0.0201,-0.0203,-0.0205,-0.0206,-0.0209,-0.0209,-0.0209,-0.0207,-0.0214,-0.0214,-0.0214,-0.0206,-0.0205,-0.0204,0,0,0,0,0,0,-0.0176,-0.0181,-0.0183,-0.0188,-0.0191,-0.0195,-0.0199,-0.0201,-0.0204,-0.0205,-0.0206,-0.0207,-0.0208,-0.0209,-0.0209,-0.0209,-0.0211,-0.0211,-0.0205,-0.0205,-0.0204,-0.0203,-0.021,0,0,0,0,0,-0.0177,-0.0182,-0.0185,-0.019,-0.0191,-0.0195,-0.0198,-0.02,-0.0203,-0.0205,-0.0206,-0.0208,-0.0208,-0.0208,-0.021,-0.0209,-0.0209,-0.0209,-0.0208,-0.0208,-0.0207,-0.0202,-0.0201,-0.0214,-0.0214,-0.0214,0,0,-0.018,-0.0182,-0.0185,-0.019,-0.0194,-0.0194,-0.0197,-0.0201,-0.0201,-0.0204,-0.0205,-0.0207,-0.0209,-0.0208,-0.0208,-0.0208,-0.0204,-0.0208,-0.0207,-0.0207,-0.0202,-0.0201,-0.02,-0.0214,-0.0214,-0.0214,0,0,-0.0184,-0.0188,-0.0192,-0.0193,-0.0197,-0.0197,-0.0198,-0.0202,-0.0202,-0.0204,-0.0205,-0.0204,-0.0208,-0.0204,-0.0204,-0.0202,-0.0203,-0.0205,-0.0198,-0.0194,-0.0193,-0.0192,-0.0189,-0.0188,-0.0202,-0.0202,-0.0202,0,-0.0186,-0.019,-0.0193,-0.0195,-0.0195,-0.0198,-0.0198,-0.0199,-0.0202,-0.02,-0.0204,-0.0203,-0.0205,-0.0199,-0.0198,-0.02,-0.02,-0.02,-0.0193,-0.0192,-0.0191,-0.0189,-0.0187,-0.0202,-0.0202,-0.0202,-0.0202,0,-0.0191,-0.0194,-0.0195,-0.0197,-0.0197,-0.0199,-0.0198,-0.0197,-0.0198,-0.0197,-0.0194,-0.0196,-0.0194,-0.0195,-0.0197,-0.019,-0.0193,-0.0194,-0.0193,-0.0189,-0.0187,-0.0186,-0.0201,-0.0201,-0.0201,-0.0202,0,0,-0.0197,-0.0198,-0.02,-0.0198,-0.0198,-0.0198,-0.0195,-0.0191,-0.0186,-0.0188,-0.0181,-0.0183,-0.0183,-0.0183,-0.0184,-0.0179,-0.0173,-0.0184,-0.0184,-0.018,-0.0165,-0.0169,-0.0169,-0.0174,-0.0173,-0.0173,-0.0167,0,-0.02,-0.0202,-0.0201,-0.02,-0.02,-0.0197,-0.0193,-0.0188,-0.0183,-0.0176,-0.0175,-0.0171,-0.0179,-0.0177,-0.0175,-0.0173,-0.017,-0.0175,-0.0172,-0.0172,-0.0174,-0.0167,-0.0173,-0.0166,-0.0165,-0.0165,-0.0165,0,-0.0205,-0.0205,-0.0206,-0.0199,-0.0199,-0.0198,-0.0188,-0.0184,-0.0173,-0.0168,-0.0162,-0.016,-0.0154,-0.0163,-0.0157,-0.0161,-0.0165,-0.0164,-0.0164,-0.017,-0.0174,-0.0171,-0.0163,-0.0163,-0.0164,-0.0164,-0.0164,0,-0.0209,-0.0207,-0.0208,-0.0207,-0.0201,-0.02,-0.0196,-0.0184,-0.0176,-0.0163,-0.0152,-0.0148,-0.0141,-0.0145,-0.0148,-0.0152,-0.0142,-0.0147,-0.0154,-0.0155,-0.0157,-0.0158,-0.0146,-0.0146,-0.0146,-0.0146,-0.0146,0,-0.0211,-0.0212,-0.0211,-0.0212,-0.021,-0.0204,-0.0198,-0.0189,-0.0174,-0.0155,-0.015,-0.0134,-0.0136,-0.013,-0.014,-0.0142,-0.0137,-0.0152,-0.0152,-0.0154,-0.0155,-0.0156,-0.0157,-0.0146,-0.0146,-0.0146,-0.0146,0,-0.0216,-0.0216,-0.0217,-0.0214,-0.0213,-0.0213,-0.0201,-0.0192,-0.0176,-0.015,-0.0145,-0.0121,-0.011,-0.0115,-0.0115,-0.0128,-0.0133,-0.0138,-0.0138,-0.0139,-0.0152,-0.0153,-0.0143,-0.0143,-0.0143,-0.0143,-0.0143,0,-0.0217,-0.022,-0.0222,-0.0222,-0.0222,-0.022,-0.0215,-0.0199,-0.0183,-0.0139,-0.0124,-0.0103,-0.0091,-0.0089,-0.0102,-0.012,-0.0127,-0.0134,-0.0146,-0.015,-0.0151,-0.0152,-0.0153,-0.0143,-0.0143,-0.0143,-0.0143,0,-0.022,-0.0226,-0.0226,-0.0226,-0.0225,-0.0219,-0.0207,-0.0192,-0.0162,-0.0147,-0.0099,-0.009,-0.0075,-0.0081,-0.0095,-0.011,-0.0131,-0.0135,-0.0135,-0.0146,-0.015,-0.0151,-0.0152,-0.0144,-0.0144,-0.0144,-0.0144,0,-0.0224,-0.0227,-0.0229,-0.0226,-0.0224,-0.021,-0.0206,-0.0179,-0.016,-0.0108,-0.0093,-0.0071,-0.0059,-0.0075,-0.0088,-0.0103,-0.0111,-0.0125,-0.0125,-0.0125,-0.0127,-0.0129,-0.0114,0,0,0,0,0,-0.0227,-0.0226,-0.0225,-0.022,-0.0216,-0.0211,-0.0193,-0.0185,-0.0154,-0.0119,-0.0103,-0.0087,-0.0084,-0.0081,-0.0097,-0.0102,-0.0125,-0.0123,-0.0144,-0.0145,-0.0144,-0.015,0,0,0,0,0,0,-0.0227,-0.0229,-0.0224,-0.0211,-0.0204,-0.0196,-0.0183,-0.0164,-0.0143,-0.0112,-0.0111,-0.0098,-0.0101,-0.0073,-0.0097,-0.0101,-0.0119,-0.012,-0.0121,-0.0145,-0.0145,-0.0144,-0.015,0,0,0,0,0]}]]